Weather History for Fort Smith, AR

Change the Weather History Date:

Monday, November 26, 2012

  Actual Average Record
Temperature  
Mean Temperature 53 °F 47 °F  
Max Temperature 59 °F 58 °F 82 °F (1965)
Min Temperature 46 °F 36 °F 17 °F (1975)
Degree Days  
Heating Degree Days 12 18  
Month to date heating degree days 291 336  
Since 1 July heating degree days 451 490  
Moisture  
Dew Point 41 °F    
Average Humidity 70    
Maximum Humidity 80    
Minimum Humidity 60    
Precipitation  
Precipitation T in 0.14 in 1.90 in (1893)
Month to date precipitation 0.29 3.87  
Year to date precipitation 31.19 41.60  
Sea Level Pressure  
Sea Level Pressure 30.04 in    
Wind  
Wind Speed 9 mph (NE)    
Max Wind Speed 20 mph    
Max Gust Speed 26 mph    
Visibility 10 miles    
Events Rain    
T = Trace of Precipitation, MM = Missing Value Source: NWS Daily Summary

Daily Weather History Graph

Daily Weather History Graph

Search for Another Location

Airport:

Trip Planner

Search our weather history database for the weather conditions in past years. The results will help you decide how hot, cold, wet, or windy it might be!

Date:

Astronomy

Nov. 26, 2012 Rise Set
Actual Time 7:03 AM CST 5:05 PM CST
Civil Twilight 6:36 AM CST 5:33 PM CST
Nautical Twilight 6:04 AM CST 6:04 PM CST
Astronomical Twilight 5:34 AM CST 6:35 PM CST
Moon 3:57 PM CST (11/26) 5:16 AM CST (11/26)
Length of Visible Light 10h 57m
Length of Day
10h 02m
Waxing Gibbous, 97% of the Moon is Illuminated
Nov 26
Waxing Gibbous
Nov 28
Full
Dec 6
Last Quarter
Dec 13
New
Dec 19
First Quarter

Hourly Weather History & Observations

Time (CST) Temp. Windchill Dew Point Humidity Pressure Visibility Wind Dir Wind Speed Gust Speed Precip Events Conditions
12:53 AM 48.0 °F - 39.0 °F 71% 29.93 in 10.0 mi ENE 4.6 mph - N/A   Mostly Cloudy
1:53 AM 48.0 °F - 39.9 °F 74% 29.92 in 10.0 mi NE 5.8 mph - N/A   Partly Cloudy
2:53 AM 46.9 °F - 39.9 °F 77% 29.93 in 10.0 mi ENE 5.8 mph - N/A   Mostly Cloudy
3:53 AM 46.9 °F - 39.0 °F 74% 29.92 in 10.0 mi NE 5.8 mph - N/A   Clear
4:53 AM 48.0 °F - 39.0 °F 71% 29.92 in 10.0 mi ENE 6.9 mph - N/A   Partly Cloudy
5:29 AM 50.0 °F - 39.2 °F 66% 29.93 in 10.0 mi NE 5.8 mph - N/A   Overcast
5:53 AM 48.9 °F - 39.0 °F 69% 29.93 in 10.0 mi ENE 6.9 mph - N/A   Overcast
6:08 AM 48.2 °F - 39.2 °F 71% 29.94 in 10.0 mi NE 8.1 mph - N/A   Mostly Cloudy
6:41 AM 48.2 °F - 39.2 °F 71% 29.94 in 10.0 mi NE 6.9 mph - N/A   Mostly Cloudy
6:53 AM 50.0 °F - 39.9 °F 68% 29.95 in 10.0 mi NE 6.9 mph - N/A   Overcast
7:53 AM 52.0 °F - 41.0 °F 66% 29.97 in 10.0 mi ENE 8.1 mph - N/A   Overcast
8:53 AM 53.1 °F - 41.0 °F 64% 29.99 in 10.0 mi ENE 8.1 mph - N/A   Overcast
9:53 AM 55.0 °F - 42.1 °F 62% 29.99 in 10.0 mi ENE 10.4 mph - N/A   Overcast
10:53 AM 55.9 °F - 43.0 °F 62% 30.01 in 10.0 mi East 6.9 mph - N/A   Overcast
11:29 AM 55.4 °F - 44.6 °F 67% 30.01 in 10.0 mi ENE 6.9 mph - N/A   Overcast
11:53 AM 55.0 °F - 46.0 °F 72% 30.00 in 8.0 mi ENE 6.9 mph - 0.00 in Rain Light Rain
12:53 PM 57.0 °F - 46.9 °F 69% 29.97 in 10.0 mi ENE 8.1 mph - 0.00 in   Overcast
1:53 PM 59.0 °F - 48.0 °F 67% 29.98 in 10.0 mi ENE 3.5 mph - N/A   Overcast
2:53 PM 59.0 °F - 48.9 °F 69% 29.99 in 10.0 mi ENE 3.5 mph - N/A   Overcast
3:53 PM 57.0 °F - 52.0 °F 83% 30.00 in 7.0 mi WNW 8.1 mph - N/A   Overcast
4:53 PM 53.1 °F - 45.0 °F 74% 30.05 in 10.0 mi North 18.4 mph 26.5 mph N/A   Overcast
5:53 PM 50.0 °F - 42.1 °F 74% 30.14 in 10.0 mi North 13.8 mph - N/A   Overcast
6:53 PM 48.9 °F - 37.9 °F 66% 30.19 in 10.0 mi NNE 12.7 mph 21.9 mph N/A   Overcast
7:53 PM 48.0 °F - 37.0 °F 66% 30.24 in 10.0 mi NNE 10.4 mph - N/A   Overcast
8:53 PM 48.0 °F - 36.0 °F 63% 30.26 in 10.0 mi NNE 10.4 mph - N/A   Overcast
9:53 PM 48.0 °F - 36.0 °F 63% 30.28 in 10.0 mi North 9.2 mph - N/A   Overcast
10:53 PM 46.9 °F - 34.0 °F 61% 30.29 in 10.0 mi NNE 13.8 mph - N/A   Overcast
11:53 PM 46.0 °F 39.9 °F 30.9 °F 56% 30.32 in 10.0 mi NNE 13.8 mph - N/A   Overcast